Home   Weather   Boulogne-Billancourt   Past weeks

Flag for France Past Weather in Boulogne-Billancourt, Île-de-France, France — Yesterday and Last 2 Weeks

Now
32 °F

Ice fog.


Feels Like: 29 °F
Forecast: 26 / 35 °F
Wind: 3 mph from North

Location: Paris-Orly

Current Time: Jan 24, 2017 at 10:26:52 pm

Latest Report: Jan 24, 2017 at 10:00 pm


Visibility: 1 mi

Pressure: 30.39 "Hg

Humidity: 93%

Dew Point: 30 °F

Location of Boulogne-BillancourtLocation

Past Weather in Boulogne-Billancourt — Graph

°F

Boulogne-Billancourt Temperature Yesterday

Maximum temperature yesterday: 32 °F (at 10:30 am)
Minimum temperature yesterday: 27 °F (at 3:00 am)
Average temperature yesterday: 29 °F

High & Low Weather Summary for the Past Weeks

 TemperatureHumidityPressure
High50 °F (Jan 11, 2:30 pm)100% (Jan 10, 12:30 am)30.57 "Hg (Jan 10, 12:30 am)
Low19 °F (Jan 21, 7:00 am)45% (Jan 22, 2:00 pm)29.33 "Hg (Jan 12, 7:30 pm)
Average33 °F81%30.22 "Hg
* Reported Jan 9 9:00 pm — Jan 24 9:00 pm, Boulogne-Billancourt, Weather by CustomWeather, © 2017

Note: Actual official high and low records may vary slightly from our data, if they occured in-between our weather recording intervals... More about our weather records

Advertising

Boulogne-Billancourt Weather History for the Previous 24 Hours

Scroll right to see more
 ConditionsComfort  
Time TempWeatherWind HumidityBarometerVisibility
9:00 pm
Tue, Jan 24
32 °FIce fog.6 mph93%30.39 "Hg1 mi
8:30 pm32 °FIce fog.6 mph93%30.39 "Hg1 mi
8:00 pm32 °FIce fog.6 mph93%30.39 "Hg1 mi
7:30 pm32 °FIce fog.5 mph93%30.39 "Hg1 mi
7:00 pm32 °FIce fog.3 mph93%30.39 "Hg1 mi
6:30 pm30 °FIce fog.3 mph93%30.39 "Hg2 mi
6:00 pm30 °FIce fog.2 mph93%30.39 "Hg2 mi
5:30 pm32 °FIce fog.2 mph87%30.39 "Hg2 mi
5:00 pm34 °FFog.2 mph87%30.39 "Hg2 mi
4:30 pm34 °FFog.1 mph87%30.36 "Hg3 mi
4:00 pm36 °FFog.No wind81%30.36 "Hg3 mi
3:30 pm36 °FFog.2 mph81%30.36 "Hg3 mi
3:00 pm36 °FFog.3 mph81%30.36 "Hg3 mi
2:30 pm36 °FLight snow. Fog.No wind81%30.36 "Hg3 mi
2:00 pm34 °FFog.No wind87%30.36 "Hg2 mi
1:30 pm34 °FFog.No wind87%30.39 "Hg2 mi
1:00 pm34 °FLight snow. Fog.1 mph87%30.39 "Hg2 mi
12:30 pm34 °FFog.No wind81%30.39 "Hg2 mi
12:00 pm32 °FIce fog.No wind87%30.39 "Hg2 mi
11:30 am32 °FIce fog.1 mph87%30.39 "Hg2 mi
11:00 am30 °FIce fog.No wind86%30.39 "Hg2 mi
10:30 am30 °FIce fog.No wind86%30.39 "Hg2 mi
10:00 am30 °FIce fog.3 mph86%30.36 "Hg2 mi
9:30 am30 °FIce fog.3 mph86%30.36 "Hg2 mi
9:00 am28 °FIce fog.3 mph93%30.36 "Hg2 mi
8:30 am28 °FIce fog.2 mph93%30.36 "Hg3 mi
8:00 am28 °FIce fog.2 mph93%30.36 "Hg3 mi
7:30 am28 °FIce fog.No wind93%30.33 "Hg2 mi
7:00 am28 °FIce fog.3 mph86%30.33 "Hg2 mi
6:30 am28 °FIce fog.6 mph93%30.33 "Hg1 mi
6:00 am28 °FIce fog.3 mph93%30.33 "Hg1 mi
5:30 am28 °FFog.3 mph93%30.36 "Hg1 mi
5:00 am28 °FFog.3 mph93%30.33 "Hg1 mi
4:30 am28 °FFog.No wind93%30.33 "Hg1 mi
4:00 am28 °FFog.2 mph93%30.33 "Hg1 mi
3:30 am28 °FSleet. Overcast.3 mph93%30.33 "Hg1 mi
3:00 am28 °FFog.3 mph93%30.33 "Hg1 mi
2:30 am28 °FIce fog.3 mph93%30.33 "Hg1 mi
2:00 am28 °FIce fog.3 mph93%30.33 "Hg1 mi
1:30 am28 °FIce fog.5 mph93%30.33 "Hg1 mi
1:00 am28 °FIce fog.3 mph93%30.33 "Hg1 mi
12:30 am28 °FIce fog.5 mph93%30.33 "Hg1 mi
12:00 am28 °FIce fog.3 mph93%30.33 "Hg1 mi
11:30 pm
Mon, Jan 23
28 °FIce fog.3 mph93%30.36 "Hg1 mi
11:00 pm28 °FIce fog.3 mph93%30.36 "Hg2 mi
10:30 pm30 °FIce fog.3 mph86%30.36 "Hg2 mi
10:00 pm30 °FIce fog.3 mph93%30.36 "Hg2 mi
Weather by CustomWeather, © 2017

See weather overviewHow to use our weather pages